This demonstration page uses our WeatherBlox Daily Observations layout. Learn more.

39.29038, -76.61219

Hourly Observations for July 1, 2019

Temp ( °F °C ) Dew Point ( °F °C ) Humidity (%) Winds ( mph kmh ) Pressure ( in mb ) Visibility ( mi km ) Precip ( " mm )
12:54 am 00:54 undefined 75 23.9 53 11.7 46 46 undefined N/A 29.91 1013 N/A 0 0
1:54 am 01:54 undefined 74 23.3 53 11.7 48 48 undefined N/A 29.94 1014 N/A 0 0
2:54 am 02:54 undefined 73 22.8 53 11.7 50 50 undefined N/A 29.94 1014 N/A 0 0
3:54 am 03:54 undefined 72 22.2 54 12.2 53 53 undefined N/A 29.94 1014 N/A 0 0
4:54 am 04:54 undefined 70 21.1 54 12.2 57 57 undefined N/A 29.94 1014 N/A 0 0
5:54 am 05:54 undefined 70 21.1 54 12.2 57 57 undefined N/A 29.94 1014 N/A 0 0
6:54 am 06:54 undefined 70 21.1 54 12.2 57 57 undefined N/A 29.97 1015 N/A 0 0
7:54 am 07:54 undefined 72 22.2 55 12.8 55 55 undefined N/A 29.97 1015 N/A 0 0
8:54 am 08:54 undefined 74 23.3 54 12.2 50 50 undefined N/A 29.97 1015 N/A 0 0
9:54 am 09:54 undefined 77 25 56 13.3 48 48 undefined N/A 29.97 1015 N/A 0 0
10:54 am 10:54 undefined 78 25.6 55 12.8 45 45 undefined N/A 29.97 1015 N/A 0 0
11:54 am 11:54 undefined 81 27.2 55 12.8 41 41 undefined N/A 29.97 1015 N/A 0 0
12:54 pm 12:54 undefined 83 28.3 55 12.8 38 38 undefined N/A 29.97 1015 N/A 0 0
1:54 pm 13:54 undefined 84 28.9 56 13.3 38 38 undefined N/A 29.97 1015 N/A 0 0
2:54 pm 14:54 undefined 86 30 55 12.8 35 35 undefined N/A 29.94 1014 N/A 0 0
3:54 pm 15:54 undefined 87 30.6 58 14.4 37 37 undefined N/A 29.94 1014 N/A 0 0
4:54 pm 16:54 undefined 86 30 59 15 40 40 undefined N/A 29.91 1013 N/A 0 0
5:54 pm 17:54 undefined 83 28.3 60 15.6 46 46 undefined N/A 29.91 1013 N/A 0 0
6:54 pm 18:54 undefined 81 27.2 60 15.6 49 49 undefined N/A 29.91 1013 N/A 0 0
7:54 pm 19:54 undefined 81 27.2 62 16.7 53 53 undefined N/A 29.91 1013 N/A 0 0
8:54 pm 20:54 undefined 80 26.7 60 15.6 51 51 undefined N/A 29.91 1013 N/A 0 0
9:54 pm 21:54 undefined 78 25.6 60 15.6 54 54 undefined N/A 29.94 1014 N/A 0 0
10:54 pm 22:54 undefined 77 25 61 16.1 58 58 undefined N/A 29.94 1014 N/A 0 0
11:54 pm 23:54 undefined 76 24.4 61 16.1 60 60 undefined N/A 29.94 1014 N/A 0 0

Powered by AerisWeather